Home > Weather > Ohrid > Past weeks

Flag for Macedonia, Republic of Past Weather in Ohrid, Macedonia, Republic of — Yesterday and Last 2 Weeks

Now
59 °F

Passing clouds.


Feels Like: 60 °F
Forecast: 54 / 79 °F
Wind: 3 mph from North

Location: Ohrid Airport

Current Time: Jun 29, 2016 at 5:55:41 AM

Latest Report: Jun 29, 2016 at 5:30 AM


Visibility: N/A

Pressure: 30.01 "Hg (27.63 "Hg at 696m altitude)

Humidity: 82%

Dew Point: 54 °F

Location of OhridLocation

Past Weather in Ohrid — Graph

°F

Ohrid Temperature Yesterday

Maximum temperature yesterday: 73 °F (at 10:30 AM)
Minimum temperature yesterday: 59 °F (at 4:30 AM)
Average temperature yesterday: 68 °F

High & Low Weather Summary for the Past Weeks

 TemperatureHumidityPressure
High88 °F (Jun 17, 4:30 PM)94% (Jun 14, 6:00 AM)30.21 "Hg (Jun 14, 6:00 AM)
Low52 °F (Jun 14, 5:00 AM)23% (Jun 25, 4:00 PM)29.65 "Hg (Jun 14, 5:00 AM)
Average73 °F62%30.03 "Hg
* Reported Jun 14 5:00 AM — Jun 29 4:30 AM, Ohrid, Weather by CustomWeather, © 2016

Note: Actual official high and low records may vary slightly from our data, if they occured in-between our weather recording intervals... More about our weather records

Advertising

Ohrid Weather History for the Previous 24 Hours

Scroll right to see more
 ConditionsComfort  
Time TempWeatherWind HumidityBarometerVisibility
4:30 AM
Wed, Jun 29
59 °FPassing clouds.3 mph82%29.98 "HgN/A
8:00 PM
Tue, Jun 28
63 °FBroken clouds.2 mph88%29.95 "HgN/A
7:30 PM64 °FBroken clouds.3 mph83%29.92 "HgN/A
7:00 PM64 °FBroken clouds.3 mph83%29.92 "HgN/A
6:30 PM64 °FThundershowers. Scattered clouds.6 mph83%29.92 "HgN/A
6:00 PM66 °FThunderstorms. Broken clouds.9 mph73%29.92 "HgN/A
5:30 PM70 °FThundershowers. Partly sunny.5 mph64%29.89 "HgN/A
5:00 PM73 °FScattered clouds.9 mph57%29.89 "HgN/A
4:30 PM73 °FScattered clouds.10 mph57%29.89 "HgN/A
4:00 PM72 °FScattered clouds.13 mph61%29.89 "HgN/A
3:30 PM70 °FScattered clouds.14 mph69%29.92 "HgN/A
3:00 PM72 °FBroken clouds.6 mph61%29.92 "HgN/A
2:30 PM70 °FBroken clouds.10 mph60%29.92 "HgN/A
2:00 PM72 °FBroken clouds.3 mph61%29.92 "HgN/A
1:30 PM72 °FBroken clouds.1 mph61%29.95 "HgN/A
12:30 PM70 °FThundershowers. Broken clouds.3 mph69%29.95 "HgN/A
12:00 PM73 °FThundershowers. Scattered clouds.6 mph57%29.95 "HgN/A
11:30 AM73 °FThundershowers. Scattered clouds.5 mph61%29.92 "HgN/A
11:00 AM73 °FPassing clouds.5 mph61%29.95 "HgN/A
10:30 AM73 °FPassing clouds.5 mph65%29.95 "HgN/A
10:00 AM72 °FScattered clouds.5 mph65%29.95 "HgN/A
9:30 AM72 °FScattered clouds.3 mph65%29.95 "HgN/A
9:00 AM70 °FScattered clouds.5 mph69%29.95 "HgN/A
8:30 AM72 °FScattered clouds.6 mph61%29.95 "HgN/A
8:00 AM70 °FScattered clouds.6 mph64%29.95 "HgN/A
7:30 AM70 °FScattered clouds.No wind69%29.95 "HgN/A
7:00 AM64 °FScattered clouds.3 mph73%29.95 "HgN/A
6:30 AM59 °FScattered clouds.3 mph88%29.95 "HgN/A
6:00 AM59 °FPassing clouds.2 mph88%29.95 "HgN/A
5:30 AM59 °FPassing clouds.3 mph88%29.95 "HgN/A
5:00 AM59 °FPassing clouds.5 mph88%29.95 "HgN/A
Weather by CustomWeather, © 2016

See weather overviewHow to use our weather pages